| time (UTC) | temp C | wind direction | speed KPH | gust KPH | rain 1hr cm | rain 24hr cm | rain mn cm | humidity % | barometer mb |
| 20260503021555 | 4 | 230 | 8.0 | 0.0 | 0.00 | 0.00 | 0.00 | 64 | 989.6 |
| 20260503020123 | 5 | 236 | 9.7 | 0.0 | 0.00 | 0.00 | 0.00 | 64 | 989.6 |
| 20260503014553 | 5 | 239 | 11.3 | 0.0 | 0.00 | 0.00 | 0.00 | 51 | 989.4 |
| 20260503013112 | 5 | 243 | 11.3 | 0.0 | 0.00 | 0.00 | 0.00 | 51 | 989.4 |
| 20260503011553 | 5 | 241 | 8.0 | 0.0 | 0.00 | 0.00 | 0.00 | 51 | 989.4 |
| 20260503010122 | 6 | 244 | 9.7 | 0.0 | 0.00 | 0.00 | 0.00 | 51 | 989.4 |
| 20260503004553 | 6 | 251 | 9.7 | 0.0 | 0.00 | 0.00 | 0.00 | 37 | 990.1 |
| 20260503003107 | 7 | 246 | 8.0 | 0.0 | 0.00 | 0.00 | 0.00 | 36 | 990.3 |
| 20260503001553 | 7 | 265 | 6.4 | 0.0 | 0.00 | 0.00 | 0.00 | 36 | 990.3 |
| 20260503000126 | 8 | 279 | 8.0 | 0.0 | 0.00 | 0.00 | 0.00 | 36 | 990.3 |
| 20260502234554 | 8 | 286 | 11.3 | 0.0 | 0.00 | 0.00 | 0.00 | 33 | 990.0 |
| 20260502233106 | 8 | 280 | 12.9 | 0.0 | 0.00 | 0.00 | 0.00 | 34 | 990.1 |
| 20260502231554 | 8 | 275 | 14.5 | 0.0 | 0.00 | 0.00 | 0.00 | 34 | 990.1 |
| 20260502230121 | 8 | 275 | 16.1 | 0.0 | 0.00 | 0.00 | 0.00 | 34 | 990.1 |
| 20260502224554 | 9 | 276 | 16.1 | 0.0 | 0.00 | 0.00 | 0.00 | 34 | 990.5 |
| 20260502223113 | 9 | 271 | 16.1 | 0.0 | 0.00 | 0.00 | 0.00 | 33 | 991.2 |
| 20260502221555 | 9 | 271 | 17.7 | 0.0 | 0.00 | 0.00 | 0.00 | 33 | 991.2 |
| 20260502220121 | 9 | 271 | 17.7 | 0.0 | 0.00 | 0.00 | 0.00 | 33 | 991.2 |
| 20260502214555 | 9 | 273 | 19.3 | 0.0 | 0.00 | 0.00 | 0.00 | 33 | 991.4 |
| 20260502213113 | 9 | 275 | 17.7 | 0.0 | 0.00 | 0.00 | 0.00 | 35 | 991.1 |
| 20260502211555 | 9 | 272 | 17.7 | 0.0 | 0.00 | 0.00 | 0.00 | 35 | 991.0 |
| 20260502210123 | 9 | 271 | 17.7 | 0.0 | 0.00 | 0.00 | 0.00 | 35 | 991.0 |
| 20260502204554 | 9 | 269 | 16.1 | 0.0 | 0.00 | 0.00 | 0.00 | 33 | 991.5 |
| 20260502203113 | 9 | 270 | 16.1 | 0.0 | 0.00 | 0.00 | 0.00 | 33 | 991.8 |
| 20260502201554 | 9 | 272 | 16.1 | 0.0 | 0.00 | 0.00 | 0.00 | 33 | 991.8 |
| 20260502200121 | 9 | 272 | 17.7 | 0.0 | 0.00 | 0.00 | 0.00 | 33 | 991.8 |
| 20260502194554 | 9 | 271 | 17.7 | 0.0 | 0.00 | 0.00 | 0.00 | 29 | 992.2 |
| 20260502193108 | 9 | 273 | 17.7 | 0.0 | 0.00 | 0.00 | 0.00 | 29 | 992.2 |
| 20260502191554 | 9 | 276 | 17.7 | 0.0 | 0.00 | 0.00 | 0.00 | 29 | 992.2 |
| 20260502190122 | 9 | 276 | 17.7 | 0.0 | 0.00 | 0.00 | 0.00 | 29 | 992.2 |
| 20260502184554 | 8 | 278 | 17.7 | 0.0 | 0.00 | 0.00 | 0.00 | 39 | 992.2 |
| 20260502183113 | 8 | 287 | 17.7 | 0.0 | 0.00 | 0.00 | 0.00 | 42 | 992.2 |
| 20260502181553 | 8 | 286 | 17.7 | 0.0 | 0.00 | 0.00 | 0.00 | 42 | 992.2 |
| 20260502180127 | 8 | 282 | 17.7 | 0.0 | 0.00 | 0.00 | 0.00 | 42 | 992.2 |
| 20260502170118 | 8 | 286 | 12.9 | 0.0 | 0.00 | 0.00 | 0.00 | 38 | 992.7 |
| 20260502163114 | 7 | 284 | 12.9 | 0.0 | 0.00 | 0.00 | 0.00 | 41 | 991.4 |
| 20260502161554 | 7 | 282 | 12.9 | 0.0 | 0.00 | 0.00 | 0.00 | 41 | 991.4 |
| 20260502160124 | 7 | 283 | 12.9 | 0.0 | 0.00 | 0.00 | 0.00 | 41 | 991.4 |
| 20260502151555 | 6 | 292 | 11.3 | 0.0 | 0.00 | 0.00 | 0.00 | 50 | 991.8 |
| 20260502150127 | 5 | 289 | 11.3 | 0.0 | 0.00 | 0.00 | 0.00 | 50 | 991.8 |
| 20260502130122 | 2 | 338 | 8.0 | 0.0 | 0.00 | 0.00 | 0.00 | 69 | 992.2 |
| 20260502123112 | 1 | 324 | 6.4 | 0.0 | 0.00 | 0.00 | 0.00 | 80 | 992.4 |
| 20260502121554 | 1 | 326 | 6.4 | 0.0 | 0.00 | 0.00 | 0.00 | 80 | 992.4 |
| 20260502120135 | 0 | 319 | 6.4 | 0.0 | 0.00 | 0.00 | 0.00 | 80 | 992.4 |
| 20260502114554 | 0 | 320 | 4.8 | 0.0 | 0.00 | 0.00 | 0.00 | 84 | 992.4 |
| 20260502113116 | 0 | 304 | 3.2 | 0.0 | 0.00 | 0.00 | 0.00 | 84 | 992.1 |
| 20260502111554 | 0 | 304 | 3.2 | 0.0 | 0.00 | 0.00 | 0.00 | 84 | 992.1 |
| 20260502110123 | 0 | 297 | 3.2 | 0.0 | 0.00 | 0.00 | 0.00 | 84 | 992.1 |
| 20260502104554 | 0 | 283 | 3.2 | 0.0 | 0.00 | 0.00 | 0.00 | 84 | 991.9 |
| 20260502103112 | 0 | 286 | 4.8 | 0.0 | 0.00 | 0.00 | 0.00 | 88 | 992.1 |
| 20260502101554 | 0 | 290 | 4.8 | 0.0 | 0.00 | 0.00 | 0.00 | 88 | 992.1 |
| 20260502100123 | 0 | 291 | 4.8 | 0.0 | 0.00 | 0.00 | 0.00 | 88 | 992.1 |
| 20260502090123 | 0 | 298 | 4.8 | 0.0 | 0.00 | 0.00 | 0.00 | 86 | 991.7 |
| 20260502070123 | 0 | 332 | 6.4 | 0.0 | 0.00 | 0.00 | 0.00 | 80 | 991.0 |
| 20260502064554 | 0 | 323 | 6.4 | 0.0 | 0.00 | 0.00 | 0.00 | 70 | 992.0 |
| 20260502063114 | 0 | 317 | 6.4 | 0.0 | 0.00 | 0.00 | 0.00 | 72 | 991.9 |
| 20260502061553 | 0 | 317 | 6.4 | 0.0 | 0.00 | 0.00 | 0.00 | 72 | 991.9 |
| 20260502060137 | 0 | 323 | 6.4 | 0.0 | 0.00 | 0.00 | 0.00 | 72 | 991.9 |
| 20260502054554 | 0 | 329 | 6.4 | 0.0 | 0.00 | 0.00 | 0.00 | 64 | 991.3 |
| 20260502053113 | 0 | 330 | 6.4 | 0.0 | 0.00 | 0.00 | 0.00 | 69 | 991.7 |
| 20260502051553 | 0 | 326 | 8.0 | 0.0 | 0.00 | 0.00 | 0.00 | 69 | 991.7 |
| 20260502050125 | 0 | 337 | 8.0 | 0.0 | 0.00 | 0.00 | 0.00 | 69 | 991.7 |
| 20260502044555 | 1 | 335 | 8.0 | 0.0 | 0.00 | 0.00 | 0.00 | 67 | 991.2 |
| 20260502043111 | 1 | 336 | 9.7 | 0.0 | 0.00 | 0.00 | 0.00 | 69 | 991.4 |
| 20260502041553 | 1 | 338 | 9.7 | 0.0 | 0.00 | 0.00 | 0.00 | 69 | 991.3 |
| 20260502040124 | 1 | 335 | 11.3 | 0.0 | 0.00 | 0.00 | 0.00 | 69 | 991.3 |
| 20260502034553 | 1 | 336 | 11.3 | 0.0 | 0.00 | 0.00 | 0.00 | 66 | 991.0 |
| 20260502033113 | 1 | 337 | 8.0 | 0.0 | 0.00 | 0.00 | 0.00 | 65 | 990.3 |
| 20260502031553 | 1 | 338 | 9.7 | 0.0 | 0.00 | 0.00 | 0.00 | 65 | 990.3 |
| 20260502030123 | 1 | 333 | 11.3 | 0.0 | 0.00 | 0.00 | 0.00 | 65 | 990.3 |
| 20260502024552 | 2 | 329 | 11.3 | 0.0 | 0.00 | 0.00 | 0.00 | 59 | 990.0 |
| 20260502023111 | 2 | 325 | 11.3 | 0.0 | 0.00 | 0.00 | 0.00 | 64 | 990.9 |